Regional Weather Roundup
Issued by NWS

Home | Current Version | Previous Version | Text Only | Print | Product List | Glossary Off
Versions: 1 2 3 4 5 6 7 8 9 10 11 12 13 14 15 16 17 18 19 20 21 22 23 24 25 26 27 28 29 30 31 32 33 34 35 36 37 38 39 40 41 42 43 44 45 46 47 48 49 50

000
ASUS45 KBOU 222007
RWRCO

WEATHER ROUNDUP FOR COLORADO
NATIONAL WEATHER SERVICE DENVER/BOULDER CO
200 PM MDT TUE JUL 22 2014

NOTE: "FAIR" INDICATES FEW OR NO CLOUDS BELOW 12000 FEET WITH NO
SIGNIFICANT WEATHER AND/OR OBSTRUCTIONS TO VISIBILITY.

COZ001>005-013-030-031-222100-
...NORTHWEST COLORADO...

CITY           SKY/WX    TMP DP  RH WIND       PRES   REMARKS
CRAIG          SUNNY     92  28  10 NW7       30.35F
HAYDEN         SUNNY     88  30  12 E5        30.39F
MEEKER         SUNNY     91  25   9 W7        30.36F
MOUNT WERNER   NOT AVBL
STEAMBOAT SPGS SUNNY     85  32  14 CALM      30.42F
WALDEN         SUNNY     81  23  12 SW12G17   30.53S
$$

COZ006>008-011-222100-
...WEST CENTRAL VALLEYS...

CITY           SKY/WX    TMP DP  RH WIND       PRES   REMARKS
GRAND JUNCTION SUNNY     96  23   7 MISG      30.22F
MONTROSE       SUNNY     95  30  10 VRB7      30.31F
EAGLE          MOSUNNY   90  36  14 SW8       30.39F
RIFLE          SUNNY     93  24   8 VRB3      30.29F
DELTA          SUNNY     97  26   7 S6        30.26F
NUCLA          SUNNY     95  25   8 N6        30.34F
$$

COZ017>023-064>068-222100-
...SOUTHWEST COLORADO...

CITY           SKY/WX    TMP DP  RH WIND       PRES   REMARKS
DURANGO        SUNNY     92  28  10 E8        30.36F
CORTEZ         SUNNY     95  22   7 CALM      30.29F
PAGOSA SPRINGS SUNNY     86  29  12 W9        30.45F
TELLURIDE      SUNNY     82  23  11 NW5       30.57F
WOLF CREEK PAS NOT AVBL
$$

COZ009-010-012-014-032>034-037-058>063-222100-
...CENTRAL COLORADO...

CITY           SKY/WX    TMP DP  RH WIND       PRES   REMARKS
ASPEN          SUNNY     87  22   9 NW8G14    30.47F
BUENA VISTA    SUNNY     87  14   6 SE6       30.48F
COPPER MTN     CLOUDY    68  19  15 W12G17    30.87S
BERTHOUD PASS  PTSUNNY   57  43  58 N5        30.93S
COTTONWOOD PAS SUNNY     86   0   3 SE10G21   30.66F
GUNNISON       SUNNY     82  30  15 SW6       30.51F
KREMMLING      SUNNY     90  14   6 NW6       30.46F
LEADVILLE      SUNNY     74  20  13 SW5       30.66F
MONARCH PASS   CLOUDY    68  30  24 E10       30.96F
SALIDA         SUNNY     90  16   6 SE3       30.52F
SUNLIGHT       SUNNY     75  32  20 SW5       30.79S
WILKERSON PASS SUNNY     77  18  10 SW3       30.84R
$$

COZ069>075-222100-
...SAN LUIS VALLEY/SANGRE DE CRISTO MOUNTAINS...

CITY           SKY/WX    TMP DP  RH WIND       PRES   REMARKS
ALAMOSA        SUNNY     86  35  16 VRB6      30.45F
LA VETA PASS   SUNNY     77  36  22 E12G18    30.71R
SAGUACHE       SUNNY     86  32  14 S10G20    30.49F
$$

COZ035-036-038>040-222100-
...NORTHERN COLORADO FRONT RANGE...

CITY           SKY/WX    TMP DP  RH WIND       PRES   REMARKS
DENVER INTL AP MOSUNNY   90  44  20 VRB3      30.32S
DMNS CITY PARK   N/A     88  50  27 N3G12     30.31F
AURORA         MOSUNNY   88  51  27 NE3       30.34F
FRONT RANGE AP NOT AVBL
ERIE MUNI ARPT SUNNY     88  49  26 CALM      30.30F
BOULDER MUN AP SUNNY     86  48  26 SE3       30.32S
CENTENNIAL     MOSUNNY   87  47  24 VRB5      30.35F
BROOMFIELD     MOSUNNY   86  50  28 VRB5      30.35F
FORT COLLINS   SUNNY     90  55  31 SE9       30.29F
LONGMONT       SUNNY     91  52  26 E3        30.32S
$$

COZ041-046-047-076>085-087-088-222100-
...PIKES PEAK/PALMER DIVIDE AND SOUTHERN FOOTHILLS...

CITY           SKY/WX    TMP DP  RH WIND       PRES   REMARKS
COLO. SPRINGS  MOSUNNY   89  49  25 E18G25    30.37S
A. F. ACADEMY  MOSUNNY   87  43  21 VRB7      30.39S
ELLICOTT       SUNNY     90  48  23 E15       30.36S
FALCON         SUNNY     85  48  27 E12G21    30.45R
FORT CARSON    NOT AVBL
LIMON          SUNNY     91  48  22 SE10G20   30.31F
MONUMENT HILL  SUNNY     81  45  28 NE9       30.45S
TRINIDAD       SUNNY     93  42  17 E12G22    30.31S
$$

COZ042>045-048>051-090-091-222100-
...NORTHEAST COLORADO...

CITY           SKY/WX    TMP DP  RH WIND       PRES   REMARKS
GREELEY ARPT   SUNNY     90  55  31 SE3       30.28F
AKRON          SUNNY     90  56  31 E10G20    30.28S
BURLINGTON     SUNNY     93  56  28 VRB6      30.21S
WRAY             N/A     95  55  26 E9G20     30.21F
STERLING       SUNNY     95  61  31 SE9G17    30.23S
HOLYOKE        SUNNY     95  59  30 E7        30.24S
FORT MORGAN    SUNNY     92  48  22 SE7       30.27F
$$

COZ086-089-092>099-222100-
...SOUTHEAST COLORADO...

CITY           SKY/WX    TMP DP  RH WIND       PRES   REMARKS
PUEBLO         SUNNY     95  50  21 E14G20    30.23F
LA JUNTA       SUNNY     95  55  26 SE8       30.20F
LAMAR          SUNNY     95  57  27 SE7       30.14F
SPRINGFIELD      N/A     92  59  33 SE9       30.21S
$$


USA.gov is the U.S. government's official web portal to all federal, state and local government web resources and services.